| time (UTC) | temp F | wind direction | speed knots | gust knots | rain 1hr in | rain 24hr in | rain mn in | humidity % | barometer mb |
| 20260504211524 | 47 | 237 | 5.2 | 13.9 | 0.00 | 0.03 | 0.01 | 72 | 1003.1 |
| 20260504210032 | 47 | 246 | 8.7 | 14.8 | 0.00 | 0.03 | 0.01 | 73 | 1002.8 |
| 20260504204532 | 47 | 211 | 3.5 | 12.2 | 0.00 | 0.05 | 0.01 | 75 | 1002.7 |
| 20260504203034 | 47 | 269 | 7.0 | 11.3 | 0.00 | 0.05 | 0.01 | 73 | 1002.7 |
| 20260504201523 | 47 | 360 | 0.9 | 11.3 | 0.00 | 0.05 | 0.01 | 75 | 1002.6 |
| 20260504200022 | 47 | 268 | 6.1 | 13.0 | 0.00 | 0.05 | 0.01 | 76 | 1002.6 |
| 20260504194524 | 47 | 210 | 6.1 | 13.0 | 0.00 | 0.09 | 0.01 | 74 | 1002.6 |
| 20260504193022 | 47 | 267 | 8.7 | 14.8 | 0.01 | 0.09 | 0.01 | 74 | 1002.6 |
| 20260504191524 | 48 | 249 | 9.6 | 16.5 | 0.01 | 0.09 | 0.01 | 75 | 1002.5 |
| 20260504190019 | 47 | 228 | 2.6 | 7.8 | 0.01 | 0.09 | 0.01 | 79 | 1002.6 |
| 20260504184519 | 46 | 220 | 2.6 | 9.6 | 0.01 | 0.14 | 0.01 | 78 | 1002.8 |
| 20260504183020 | 47 | 242 | 7.0 | 11.3 | 0.00 | 0.13 | 0.00 | 73 | 1002.7 |
| 20260504181518 | 47 | 263 | 6.1 | 13.0 | 0.00 | 0.13 | 0.00 | 75 | 1002.9 |
| 20260504180017 | 47 | 207 | 6.1 | 14.8 | 0.00 | 0.13 | 0.00 | 73 | 1002.8 |
| 20260504174517 | 48 | 225 | 6.1 | 15.6 | 0.00 | 0.16 | 0.00 | 70 | 1002.8 |
| 20260504173016 | 50 | 245 | 5.2 | 15.6 | 0.00 | 0.16 | 0.00 | 64 | 1002.7 |
| 20260504171514 | 51 | 215 | 8.7 | 18.2 | 0.00 | 0.16 | 0.00 | 56 | 1002.4 |
| 20260504081502 | 34 | 260 | 7.8 | 17.4 | 0.00 | 0.55 | 0.00 | 78 | 1002.6 |
| 20260504044534 | 38 | 360 | 8.7 | 17.4 | 0.00 | 0.55 | 0.00 | 81 | 1001.7 |
| 20260504043031 | 38 | 360 | 9.6 | 17.4 | 0.00 | 0.55 | 0.00 | 82 | 1001.7 |
| 20260504041527 | 38 | 321 | 10.4 | 16.5 | 0.00 | 0.55 | 0.00 | 83 | 1001.5 |
| 20260504040024 | 39 | 325 | 11.3 | 17.4 | 0.00 | 0.55 | 0.00 | 84 | 1001.4 |
| 20260504034523 | 39 | 360 | 10.4 | 16.5 | 0.00 | 0.55 | 0.55 | 87 | 1001.3 |
| 20260504033021 | 39 | 286 | 8.7 | 16.5 | 0.00 | 0.55 | 0.55 | 91 | 1001.1 |
| 20260504031520 | 39 | 360 | 7.8 | 14.8 | 0.00 | 0.55 | 0.55 | 92 | 1001.2 |
| 20260504030019 | 39 | 360 | 7.0 | 11.3 | 0.00 | 0.55 | 0.55 | 92 | 1001.1 |
| 20260504024517 | 39 | 360 | 7.0 | 11.3 | 0.00 | 0.56 | 0.55 | 92 | 1001.0 |
| 20260504023017 | 39 | 329 | 7.0 | 12.2 | 0.00 | 0.56 | 0.55 | 92 | 1000.8 |
| 20260504021516 | 39 | 360 | 7.8 | 13.0 | 0.00 | 0.56 | 0.55 | 92 | 1000.9 |
| 20260504020017 | 39 | 360 | 7.8 | 12.2 | 0.00 | 0.56 | 0.55 | 91 | 1000.8 |
| 20260504014524 | 39 | 360 | 7.0 | 14.8 | 0.00 | 0.56 | 0.55 | 91 | 1000.8 |
| 20260504013014 | 39 | 360 | 8.7 | 14.8 | 0.00 | 0.56 | 0.55 | 92 | 1000.8 |
| 20260504011513 | 39 | 360 | 7.8 | 12.2 | 0.00 | 0.56 | 0.55 | 92 | 1000.8 |
| 20260504010012 | 39 | 321 | 7.0 | 10.4 | 0.00 | 0.56 | 0.55 | 91 | 1000.7 |
| 20260504004512 | 39 | 327 | 7.0 | 11.3 | 0.00 | 0.56 | 0.55 | 92 | 1000.7 |
| 20260504003011 | 39 | 323 | 6.1 | 9.6 | 0.00 | 0.56 | 0.55 | 92 | 1000.5 |
| 20260504001511 | 39 | 323 | 8.7 | 13.0 | 0.01 | 0.56 | 0.55 | 92 | 1000.5 |
| 20260504000027 | 39 | 355 | 7.0 | 13.9 | 0.01 | 0.56 | 0.55 | 92 | 1000.5 |
| 20260503234509 | 39 | 332 | 9.6 | 16.5 | 0.01 | 0.57 | 0.55 | 92 | 1000.3 |
| 20260503233009 | 39 | 321 | 7.0 | 12.2 | 0.01 | 0.57 | 0.55 | 92 | 1000.2 |
| 20260503231509 | 39 | 336 | 7.0 | 12.2 | 0.00 | 0.56 | 0.54 | 92 | 1000.3 |
| 20260503230008 | 39 | 315 | 8.7 | 13.0 | 0.00 | 0.56 | 0.54 | 92 | 1000.2 |
| 20260503224507 | 40 | 360 | 7.0 | 12.2 | 0.00 | 0.59 | 0.54 | 92 | 1000.3 |
| 20260503223006 | 40 | 346 | 7.0 | 13.9 | 0.00 | 0.59 | 0.54 | 91 | 1000.2 |
| 20260503221506 | 40 | 329 | 9.6 | 15.6 | 0.00 | 0.59 | 0.54 | 91 | 1000.2 |
| 20260503220005 | 40 | 328 | 7.8 | 13.0 | 0.01 | 0.59 | 0.54 | 91 | 1000.2 |
| 20260503214511 | 40 | 333 | 7.8 | 12.2 | 0.01 | 0.64 | 0.54 | 92 | 1000.3 |
| 20260503213100 | 40 | 336 | 7.8 | 12.2 | 0.01 | 0.64 | 0.54 | 92 | 1000.5 |